Location: Fauquembergues
(50.6005°N, 2.0987°E)
Time: 10:30:47
(UTC+00:00)

Okean 1-7 - Pass Details

Date: 14 July 2020
Orbit: 592 x 618 km, 82.5° (Epoch: 05 August)

Event Time Altitude Azimuth Distance (km) Brightness Sun altitude
Rises 01:10:32 0° 349° (NNW) 2,906 7.6 -16.0°
Reaches altitude 10° 01:12:46 10° 349° (NNW) 1,996 6.6 -15.9°
Maximum altitude 01:17:12 84° 263° (W) 629 3.0 -15.7°
Enters shadow 01:19:45 25° 175° (S) 1,259 4.1 -15.5°
